Weather in Serzhen-Yurt

Russia / Chechen Republic     43°06′42″N   45°59′24″E
temp.,
°C
wind,
m/s
gust,
m/s
humid.,
%
clouds,
%
prec.,
mm/h
press.,
hPa
HPBL,
m
8 may, sat
sat800:00+10s227458 0.0 102022
03:00+9s22672 0.0 101923
06:00+12sse22590 0.0 101837
09:00+18nne22435 0.0 1016876
12:00+21nne434270 0.0 10141308
15:00+21nne434867 0.0 10131115
18:00+16nnw117565 0.0 101390
21:00+13s21814 0.0 101315
9 may, sun
sun900:00+12s22720 0.0 101221
03:00+12sse325660 0.0 101024
06:00+13s115628 0.0 101023
09:00+19n2146100 0.0 1008525
12:00+21n42475 0.0 10061107
15:00+20nnw4453100 0.1 10071455
18:00+12wnw4898100 6.3 1014744
21:00+5wnw4995100 9.0 1021960
10 may, mon
mon1000:00+4w4897100 2.3 1023761
03:00+4w389497 4.1 1023755
06:00+4ssw258992 1.2 1024509
09:00+6wnw1471100 1.7 10231074
12:00+10nnw445088 0.3 10211811
15:00+9wnw2359100 0.7 10211362
18:00+6s238293 0.8 1022254
21:00+5s228795 0.9 102355
11 may, tue
tue1100:00+4ese118778 0.1 102187
03:00+4nne1290100 0.1 1021157
06:00+4ese129053 0.2 1021248
09:00+7ne237565 0.3 1020826
12:00+11nne4360100 0.0 10181314
15:00+12ne125995 0.0 10171211
18:00+9ene117798 0.0 101830
21:00+6s228610 0.0 101916
12 may, wed
wed1200:00+6s22860 0.0 101816
03:00+5s11890 0.0 101712
06:00+7wsw01810 0.0 101798
09:00+12n326611 0.0 1015706
12:00+16n435828 0.0 10141018
15:00+17n325831 0.0 10141080
18:00+13n227513 0.0 1015254
21:00+9s21920 0.0 101616